Delavan, Wisconsin, United States (53115)
Lat: 42.63N, Lon: 88.64W
Wx Zone: WIZ070
Local Info
Past Weather Observations for Today

NOTE: This archive is for the closest National Weather Service station to Delavan. Information may differ from the station used for current weather conditions.

Click here for Long-term Archive

Time Weather Temperature Dewpoint Humidity Pressure Winds Precip Visibility
19:15
Clear
34°F / 1°C 32°F / 0°C 93% 30.27 in
(1025 mb)
Calm - 10SM
18:55
Clear
34°F / 1°C 32°F / 0°C 93% 30.24 in
(1024 mb)
Calm - 10SM
18:35
Clear
36°F / 2°C 34°F / 1°C 93% 30.24 in
(1024 mb)
Calm - 10SM
18:15
Clear
36°F / 2°C 34°F / 1°C 93% 30.24 in
(1024 mb)
Calm - 10SM
17:55
Clear
36°F / 2°C 34°F / 1°C 93% 30.24 in
(1024 mb)
Calm - 10SM
17:35
Clear
39°F / 4°C 34°F / 1°C 81% 30.24 in
(1024 mb)
Calm - 10SM
17:15
Clear
43°F / 6°C 36°F / 2°C 76% 30.24 in
(1024 mb)
Calm - 10SM
16:55
Clear
43°F / 6°C 36°F / 2°C 76% 30.21 in
(1023 mb)
Calm - 10SM
16:35
Clear
45°F / 7°C 36°F / 2°C 71% 30.21 in
(1023 mb)
N 3.5 mph
(N 6 kph)
- 10SM
16:15
Partly Cloudy
45°F / 7°C 36°F / 2°C 71% 30.21 in
(1023 mb)
NE 3.5 mph
(NE 6 kph)
- 10SM
15:55
Mostly Cloudy
46°F / 8°C 36°F / 2°C 66% 30.21 in
(1023 mb)
NE 5.8 mph
(NE 9 kph)
- 10SM
15:35
Overcast
48°F / 9°C 36°F / 2°C 62% 30.21 in
(1023 mb)
NE 6.9 mph
(NE 11 kph)
- 10SM
15:15
Overcast
48°F / 9°C 36°F / 2°C 62% 30.21 in
(1023 mb)
NNE 5.8 mph
(NNE 9 kph)
- 10SM
14:55
Overcast
48°F / 9°C 36°F / 2°C 62% 30.21 in
(1023 mb)
NNE 8.1 mph
(NNE 13 kph)
- 10SM
14:35
Overcast
48°F / 9°C 36°F / 2°C 62% 30.21 in
(1023 mb)
NNE 6.9 mph
(NNE 11 kph)
- 10SM
14:15
Overcast
46°F / 8°C 36°F / 2°C 66% 30.21 in
(1023 mb)
N 8.1 mph
(N 13 kph)
- 10SM
13:55
Overcast
46°F / 8°C 36°F / 2°C 66% 30.21 in
(1023 mb)
N 8.1 mph
(N 13 kph)
- 10SM
13:35
Overcast
46°F / 8°C 36°F / 2°C 66% 30.21 in
(1023 mb)
NE 9.2 mph
(NE 15 kph)
- 10SM
13:15
Overcast
48°F / 9°C 37°F / 3°C 66% 30.21 in
(1023 mb)
N 9.2 mph
(N 15 kph)
- 10SM
12:55
Overcast
48°F / 9°C 37°F / 3°C 66% 30.21 in
(1023 mb)
NNE 8.1 mph
(NNE 13 kph)
- 10SM
12:35
Overcast
46°F / 8°C 37°F / 3°C 71% 30.21 in
(1023 mb)
NE 8.1 mph
(NE 13 kph)
- 10SM
12:15
Overcast
46°F / 8°C 37°F / 3°C 71% 30.21 in
(1023 mb)
NE 9.2 mph
(NE 15 kph)
- 10SM
11:55
Overcast
46°F / 8°C 37°F / 3°C 71% 30.21 in
(1023 mb)
NE 10.4 mph
(NE 17 kph)
- 10SM
11:35
Overcast
48°F / 9°C 37°F / 3°C 66% 30.21 in
(1023 mb)
NNE 6.9 mph
(NNE 11 kph)
- 10SM
11:15
Overcast
46°F / 8°C 37°F / 3°C 71% 30.21 in
(1023 mb)
N 9.2 mph
(N 15 kph)
- 10SM
10:55
Overcast
48°F / 9°C 37°F / 3°C 66% 30.21 in
(1023 mb)
NE 11.5 mph
(NE 19 kph)
- 10SM
10:35
Overcast
48°F / 9°C 37°F / 3°C 66% 30.21 in
(1023 mb)
N 11.5 mph
(N 19 kph)
- 10SM
10:15
Overcast
48°F / 9°C 37°F / 3°C 66% 30.18 in
(1022 mb)
NNE 10.4 mph
(NNE 17 kph)
- 10SM
09:55
Overcast
48°F / 9°C 37°F / 3°C 66% 30.18 in
(1022 mb)
N 11.5 mph
(N 19 kph)
- 10SM
09:35
Overcast
46°F / 8°C 37°F / 3°C 71% 30.18 in
(1022 mb)
N 9.2 mph
(N 15 kph)
- 10SM
09:15
Overcast
46°F / 8°C 37°F / 3°C 71% 30.18 in
(1022 mb)
N 11.5 mph
(N 19 kph)
- 10SM
08:55
Mostly Cloudy
46°F / 8°C 37°F / 3°C 71% 30.18 in
(1022 mb)
N 6.9 mph
(N 11 kph)
- 10SM
08:35
Overcast
45°F / 7°C 37°F / 3°C 76% 30.18 in
(1022 mb)
N 10.4 mph
(N 17 kph)
- 10SM
07:55
Overcast
45°F / 7°C 37°F / 3°C 76% 30.18 in
(1022 mb)
N 5.8 mph
(N 9 kph)
- 10SM
07:35
Partly Cloudy
43°F / 6°C 37°F / 3°C 81% 30.15 in
(1021 mb)
N 8.1 mph
(N 13 kph)
- 10SM
07:15
Clear
43°F / 6°C 37°F / 3°C 81% 30.15 in
(1021 mb)
NNW 6.9 mph
(NNW 11 kph)
- 10SM
06:55
Clear
41°F / 5°C 37°F / 3°C 87% 30.15 in
(1021 mb)
N 5.8 mph
(N 9 kph)
- 10SM
06:35
Clear
41°F / 5°C 37°F / 3°C 87% 30.15 in
(1021 mb)
NNW 5.8 mph
(NNW 9 kph)
- 10SM
06:15
Clear
41°F / 5°C 36°F / 2°C 81% 30.12 in
(1020 mb)
N 5.8 mph
(N 9 kph)
- 10SM
05:55
Clear
41°F / 5°C 36°F / 2°C 81% 30.12 in
(1020 mb)
N 4.6 mph
(N 7 kph)
- 10SM
05:35
Partly Cloudy
43°F / 6°C 36°F / 2°C 76% 30.12 in
(1020 mb)
N 5.8 mph
(N 9 kph)
- 10SM
05:15
Overcast
43°F / 6°C 37°F / 3°C 81% 30.09 in
(1019 mb)
N 5.8 mph
(N 9 kph)
- 10SM
04:55
Overcast
45°F / 7°C 37°F / 3°C 76% 30.09 in
(1019 mb)
N 5.8 mph
(N 9 kph)
- 10SM
04:35
Overcast
43°F / 6°C 37°F / 3°C 81% 30.09 in
(1019 mb)
N 5.8 mph
(N 9 kph)
- 10SM
04:15
Overcast
43°F / 6°C 37°F / 3°C 81% 30.09 in
(1019 mb)
NNW 4.6 mph
(NNW 7 kph)
- 10SM
03:55
Mostly Cloudy
43°F / 6°C 37°F / 3°C 81% 30.06 in
(1018 mb)
N 3.5 mph
(N 6 kph)
- 10SM
03:35
Partly Cloudy
43°F / 6°C 37°F / 3°C 81% 30.06 in
(1018 mb)
N 4.6 mph
(N 7 kph)
- 10SM
03:15
Mostly Cloudy
45°F / 7°C 37°F / 3°C 76% 30.06 in
(1018 mb)
N 5.8 mph
(N 9 kph)
- 10SM
02:55
Overcast
45°F / 7°C 39°F / 4°C 81% 30.06 in
(1018 mb)
N 5.8 mph
(N 9 kph)
- 10SM
02:35
Overcast
46°F / 8°C 39°F / 4°C 76% 30.06 in
(1018 mb)
N 4.6 mph
(N 7 kph)
- 10SM
02:15
Overcast
46°F / 8°C 39°F / 4°C 76% 30.06 in
(1018 mb)
NNW 6.9 mph
(NNW 11 kph)
- 10SM
01:55
Overcast
46°F / 8°C 39°F / 4°C 76% 30.04 in
(1017 mb)
N 5.8 mph
(N 9 kph)
- 10SM
01:35
Overcast
46°F / 8°C 39°F / 4°C 76% 30.04 in
(1017 mb)
NNW 5.8 mph
(NNW 9 kph)
- 10SM
01:15
Overcast
46°F / 8°C N/A 76% 30.04 in
(1017 mb)
N 5.8 mph
(N 9 kph)
- 10SM
00:55
Overcast
46°F / 8°C 39°F / 4°C 76% 30.04 in
(1017 mb)
NNW 5.8 mph
(NNW 9 kph)
- 10SM
00:35
Overcast
46°F / 8°C 39°F / 4°C 76% 30.04 in
(1017 mb)
N 4.6 mph
(N 7 kph)
- 10SM
00:15
Overcast
48°F / 9°C 39°F / 4°C 71% 30.04 in
(1017 mb)
N 4.6 mph
(N 7 kph)
- 10SM
Time Weather Temperature Dewpoint Humidity Pressure Winds Precip Visibility


Weather for websites

WeatherForYou.com, LLC is not responsible for any damages or problems caused by this service. Current weather conditions are obtained from the closest station including government and personal stations which may have varying degrees of accuracy. Weather forecasts are derived from the NOAA NDFD. Like all things, this site belongs to Jesus Christ... He just trusts me to maintain it. If you have any questions or comments email webmaster@weatherforyou.com

Copyright © 2014, WeatherForYou.com LLC. All rights reserved.